Location: Darlington Observatory
(36.4817°N, 105.8156°W)
Time: 00:54:10
(UTC-06:00)

MOS 1 - Visible Passes

Search period start: 24 April 2018 00:00
Search period end: 04 May 2018 00:00
Orbit: 878 x 892 km, 99.2° (Epoch: 23 April)

Date Brightness Start Highest point End Pass type
(mag) Time Alt. Az. Time Alt. Az. Time Alt. Az.
24 Apr 7.1 21:09:04 10° WSW 21:11:40 13° W 21:14:16 10° WNW visible
25 Apr 7.1 21:07:04 10° WSW 21:09:53 14° W 21:12:42 10° WNW visible
26 Apr 7.0 21:05:06 10° SW 21:08:05 14° W 21:11:06 10° WNW visible
27 Apr 7.0 21:03:08 10° SW 21:06:18 15° W 21:09:29 10° WNW visible
28 Apr 7.0 21:01:11 10° SW 21:04:31 16° W 21:07:51 10° NW visible
29 Apr 6.9 20:59:14 10° SW 21:02:43 17° W 21:06:13 10° NW visible
30 Apr 6.9 20:57:19 10° SW 21:00:55 17° W 21:04:33 10° NW visible
01 May 6.9 20:55:23 10° SW 20:59:08 18° W 21:02:54 10° NW visible
02 May 6.9 20:53:29 10° SW 20:57:21 19° W 21:01:14 10° NW visible
03 May 6.8 20:51:34 10° SW 20:55:33 19° W 20:59:33 10° NW visible
